Wind_Speed
25 27 28 29 30 31 32 32 32 32 32 33 35 36 37 38 39 40 41 41 41 41 40 40 41 41 41 42 42 42 42 42 43 43 43 43 44 44 44 45 45 46 46
27 28 28 29 29 30 31 31 31 31 32 33 35 36 37 39 40 41 42 42 42 42 42 42 42 42 42 43 44 44 45 45 46 46 47 47 48 48 49 50 50 51 51
27 27 28 29 30 31 31 31 32 32 33 35 37 38 40 41 42 43 43 43 43 44 43 44 44 44 45 45 46 47 48 49 50 51 52 52 53 54 54 55 56 57 57
28 28 29 30 32 32 32 32 32 33 35 37 39 41 42 44 45 45 45 45 45 45 45 46 46 47 47 48 49 51 52 53 55 56 57 58 59 60 60 61 62 62 63
29 29 31 32 33 33 32 33 34 35 37 39 41 43 45 46 46 46 46 46 46 46 47 48 49 50 52 53 54 56 57 58 60 61 62 63 64 65 66 66 67 67 68
30 31 33 34 34 34 34 35 36 38 40 41 43 45 45 46 46 46 46 47 48 49 50 52 53 55 57 59 60 62 63 64 65 66 67 67 68 69 70 70 71 72 72
32 33 34 35 35 35 37 38 40 41 42 43 44 45 46 46 46 47 48 49 51 53 55 57 59 61 62 64 65 66 67 68 69 70 71 71 72 72 73 73 74 74 75
33 34 35 36 37 38 39 41 42 44 45 45 45 45 45 45 47 48 50 52 55 57 60 62 64 66 67 68 69 70 71 71 72 72 73 74 74 75 75 76 76 77 77
34 36 37 38 39 40 42 43 44 46 47 48 48 48 48 47 47 48 51 55 58 61 63 65 67 68 69 70 71 71 72 72 73 74 75 76 78 79 79 80 81 81 82
36 38 39 40 41 43 44 45 46 48 48 49 50 51 53 54 54 53 53 57 60 62 65 66 67 68 69 70 71 73 74 76 78 80 81 83 85 86 88 89 89 90 90
38 40 41 42 44 45 46 47 49 49 50 51 52 54 56 58 61 62 60 61 62 64 65 66 67 68 70 72 74 77 80 83 85 88 90 92 94 96 97 98 99 100 100
39 40 42 44 45 46 47 49 50 51 52 53 55 57 59 61 64 66 66 66 66 66 67 67 68 71 74 78 81 85 88 92 95 98 101 103 105 107 108 109 110 111 111
39 41 43 45 46 47 49 50 51 52 54 56 58 61 63 66 68 70 71 71 70 70 71 72 74 78 82 87 91 95 99 103 106 110 112 115 117 119 120 120 120 120 119
40 42 44 46 47 48 50 51 53 54 57 59 61 64 66 69 71 73 74 75 74 73 74 76 81 86 92 97 101 106 110 114 118 120 122 123 124 123 123 121 120 118 116
41 42 44 46 48 49 51 53 55 57 59 62 64 66 69 71 73 75 76 77 79 79 79 82 88 94 101 107 113 118 121 124 124 124 121 118 114 111 108 106 103 101 100
41 43 45 47 49 51 53 55 57 59 61 64 66 69 71 73 74 75 77 80 84 88 90 91 97 103 110 117 121 124 124 121 117 111 105 100 96 92 89 86 84 83 82
42 44 46 49 51 53 55 57 59 61 64 66 69 71 73 73 75 77 81 85 91 97 101 102 106 112 115 117 115 112 107 100 93 86 82 78 75 73 71 69 68 67 67
43 45 47 50 52 55 57 59 61 64 66 69 71 72 73 75 78 82 86 92 98 104 110 113 113 113 109 103 96 88 80 74 70 65 61 59 56 54 53 52 52 53 54
44 46 49 51 54 56 58 61 64 66 69 70 72 73 75 78 82 87 93 98 104 109 113 115 111 102 91 80 71 64 59 55 53 52 50 49 47 45 43 42 41 41 42
45 48 51 53 56 58 61 63 66 68 70 71 73 75 79 83 89 94 99 105 109 111 109 105 96 82 69 60 56 50 45 42 41 43 43 42 42 41 40 39 37 35 35
47 50 53 55 58 60 63 66 68 69 70 71 74 78 83 89 95 100 105 108 108 105 97 88 75 63 55 50 45 41 38 35 36 39 38 38 40 39 39 38 37 34 32
49 52 55 57 60 63 65 67 68 69 71 74 78 83 89 95 100 104 107 105 99 91 80 69 59 53 48 43 39 36 34 32 32 35 35 34 36 35 35 33 32 30 28
51 54 56 59 62 64 66 67 68 70 74 79 84 89 94 100 104 105 101 93 82 72 64 56 50 46 42 38 34 31 30 31 34 36 33 30 32 32 31 29 26 23 23
53 55 58 61 63 64 65 66 69 73 78 84 89 94 99 102 102 99 91 78 66 57 52 48 44 41 37 34 32 31 29 29 32 36 34 30 29 27 26 23 20 20 19
54 57 59 61 62 63 65 68 73 77 82 88 93 98 101 101 96 88 76 63 53 47 44 41 40 38 35 35 33 31 30 30 29 31 32 29 27 24 21 18 18 18 19
55 58 59 60 61 64 67 72 77 82 87 91 96 99 99 93 83 72 61 51 44 39 36 35 35 34 34 34 34 34 33 31 29 27 27 25 23 19 16 17 18 20 21
Wind_Direction
278 283 288 292 295 296 297 297 295 293 292 291 291 293 294 296 297 297 298 298 297 295 293 291 290 289 288 287 286 286 285 284 282 281 280 278 277 275 274 273 271 270 269
278 282 286 290 294 297 297 297 295 293 293 293 294 294 295 296 297 297 297 297 295 293 291 289 287 285 284 283 283 282 282 281 280 279 278 277 275 274 274 272 271 271 270
277 280 284 288 292 294 294 294 293 293 293 294 295 296 296 297 297 297 296 296 294 292 290 288 286 285 283 282 281 280 279 278 277 277 276 275 274 273 272 271 270 270 269
276 278 282 286 290 292 292 291 292 293 294 295 296 296 297 297 296 296 295 294 292 291 289 288 286 285 283 282 281 280 280 279 279 278 277 276 275 274 273 272 271 270 269
275 277 281 285 288 290 290 291 292 293 294 295 296 296 296 296 295 294 293 292 290 289 288 286 285 284 284 283 283 283 282 282 281 280 279 278 277 276 275 273 272 271 269
273 277 281 285 287 288 290 291 293 294 294 295 295 296 295 295 294 293 292 291 290 289 288 288 288 287 287 286 286 285 284 284 282 281 280 279 278 276 275 274 272 271 270
273 278 283 286 287 289 291 292 294 295 295 295 296 296 296 295 294 293 293 293 293 292 292 291 291 290 289 289 288 287 286 285 284 283 281 280 279 277 275 274 272 271 269
275 280 284 286 288 290 292 293 295 296 296 297 296 295 294 293 294 295 295 295 295 295 294 294 293 293 292 291 290 289 288 287 285 284 283 281 280 278 277 275 273 271 270
276 281 285 287 289 291 293 294 296 297 297 297 296 295 293 292 291 292 293 294 294 295 294 294 294 293 292 291 290 289 288 287 285 284 283 282 280 279 277 276 274 272 271
277 282 285 288 290 292 294 295 297 298 298 298 297 297 296 296 295 293 292 292 293 294 294 294 293 292 291 290 289 288 287 286 285 284 283 282 281 280 278 277 275 274 272
279 282 285 289 291 293 295 297 298 299 299 299 298 298 298 298 298 297 296 295 295 296 296 295 294 292 291 290 289 288 287 286 285 285 284 283 282 281 279 278 277 275 273
279 283 287 290 292 294 296 298 299 299 300 300 299 299 298 298 297 298 297 297 297 297 296 295 294 293 292 291 291 290 289 288 287 286 285 284 283 281 280 279 277 276 274
280 284 288 291 294 296 298 299 299 300 300 300 300 300 300 300 300 300 300 299 299 298 297 297 296 295 295 294 294 293 292 291 290 289 288 286 285 283 281 280 278 277 275
282 286 290 293 295 297 298 299 299 300 300 300 300 300 301 301 302 302 301 301 300 299 298 299 298 298 298 297 296 295 294 293 291 290 289 287 285 284 282 281 279 277 275
285 289 292 294 296 298 299 299 300 300 301 301 301 302 302 303 303 303 303 303 302 301 301 301 301 301 300 299 298 297 295 294 292 291 289 287 285 283 281 280 278 276 274
288 291 293 295 297 298 299 300 301 301 302 302 303 303 304 304 304 304 304 305 305 305 304 304 303 303 302 301 300 299 297 296 294 292 290 287 285 283 281 279 276 274 272
290 292 294 296 297 299 300 301 302 303 303 304 304 305 305 305 305 306 306 306 307 306 306 306 305 305 304 302 301 299 298 297 295 293 291 289 287 285 283 280 277 274 272
291 293 295 297 298 300 301 302 303 304 304 305 305 306 306 306 307 307 308 308 308 308 308 308 307 306 305 303 302 301 300 299 298 297 296 294 293 291 288 285 281 277 274
293 295 297 298 300 301 302 303 304 305 306 306 306 307 308 308 309 309 309 310 310 310 310 309 309 309 308 306 305 304 304 302 301 300 300 300 300 298 296 293 290 286 281
294 296 298 300 301 302 304 305 305 306 307 308 308 309 310 310 310 311 311 311 311 311 311 310 311 311 311 310 309 309 308 307 306 304 305 307 306 305 303 300 297 293 289
296 298 300 301 303 304 305 306 306 307 308 309 310 311 311 312 312 313 313 313 313 312 312 312 313 313 313 313 313 313 313 312 309 307 311 310 309 309 306 303 301 297 293
297 300 302 303 304 305 306 307 308 309 310 311 311 312 313 313 314 314 315 315 314 314 313 314 315 316 317 317 318 318 318 317 313 311 315 314 311 312 310 307 304 300 297
300 302 303 305 306 307 308 309 310 311 312 312 313 313 314 315 315 315 315 315 314 313 314 316 317 318 319 320 322 323 322 322 319 318 321 319 316 316 315 315 313 309 304
302 303 305 306 307 308 309 310 311 312 313 314 315 315 316 316 316 316 316 315 314 314 315 317 318 321 323 324 326 328 329 329 327 324 328 329 327 325 322 323 323 322 318
303 304 306 307 308 310 311 311 312 314 315 315 316 316 317 317 316 316 316 316 316 316 317 318 320 322 324 326 327 329 331 333 332 329 331 334 336 335 333 337 340 341 338
304 306 307 309 310 311 312 312 314 315 316 317 317 317 318 317 317 317 317 317 317 317 318 319 320 321 323 325 327 329 333 337 337 336 336 338 342 347 349 349 350 348 345
Height
5801 5801 5800 5799 5798 5796 5794 5792 5790 5789 5787 5785 5783 5781 5779 5777 5775 5772 5770 5767 5765 5763 5761 5758 5756 5755 5753 5751 5750 5749 5748 5748 5747 5746 5746 5745 5745 5745 5745 5745 5745 5745 5746
5796 5795 5794 5793 5791 5790 5788 5786 5784 5782 5780 5778 5776 5774 5772 5770 5767 5764 5762 5759 5757 5754 5752 5750 5748 5746 5744 5742 5741 5740 5738 5737 5736 5735 5735 5734 5734 5733 5733 5733 5733 5734 5734
5790 5789 5788 5787 5786 5784 5782 5780 5778 5776 5774 5772 5769 5766 5764 5762 5758 5755 5753 5750 5747 5745 5742 5740 5738 5736 5734 5732 5731 5729 5727 5726 5724 5723 5722 5721 5720 5720 5720 5719 5720 5720 5720
5784 5783 5782 5781 5779 5777 5776 5774 5772 5770 5768 5765 5762 5758 5756 5753 5749 5746 5744 5741 5738 5735 5732 5730 5727 5725 5723 5721 5719 5717 5715 5713 5711 5709 5708 5706 5705 5704 5704 5704 5704 5704 5704
5778 5777 5776 5774 5773 5771 5769 5767 5765 5763 5760 5757 5754 5750 5747 5743 5740 5737 5734 5731 5727 5724 5721 5719 5716 5713 5710 5708 5705 5703 5700 5698 5695 5693 5691 5689 5688 5687 5686 5685 5685 5685 5685
5772 5771 5769 5767 5766 5764 5762 5760 5758 5755 5753 5749 5746 5741 5737 5734 5730 5727 5724 5720 5716 5713 5709 5706 5703 5699 5696 5693 5690 5687 5684 5681 5678 5675 5673 5671 5669 5667 5666 5665 5664 5664 5664
5765 5764 5762 5760 5758 5756 5754 5752 5749 5746 5743 5740 5737 5733 5728 5724 5720 5716 5713 5708 5704 5700 5696 5692 5688 5684 5680 5676 5672 5668 5665 5661 5658 5655 5653 5650 5648 5646 5645 5643 5643 5642 5642
5758 5756 5755 5753 5751 5749 5746 5743 5740 5736 5733 5729 5726 5723 5720 5716 5710 5706 5701 5696 5692 5687 5681 5676 5671 5666 5661 5657 5653 5649 5645 5641 5637 5634 5630 5628 5625 5623 5621 5619 5618 5618 5618
5750 5749 5747 5745 5742 5740 5737 5734 5730 5726 5722 5718 5714 5710 5707 5705 5703 5700 5693 5686 5680 5674 5668 5662 5656 5649 5644 5639 5634 5629 5625 5620 5616 5612 5608 5604 5601 5598 5596 5594 5593 5592 5592
5742 5741 5739 5736 5734 5731 5727 5724 5720 5715 5710 5706 5701 5696 5692 5688 5685 5685 5683 5675 5668 5662 5654 5647 5640 5633 5626 5620 5615 5609 5604 5599 5594 5589 5584 5580 5576 5572 5569 5567 5565 5564 5563
5734 5732 5730 5727 5724 5721 5717 5713 5708 5703 5699 5694 5689 5684 5679 5673 5667 5663 5663 5660 5654 5646 5638 5630 5623 5615 5608 5601 5595 5589 5582 5576 5570 5564 5558 5553 5547 5543 5539 5535 5533 5531 5530
5726 5724 5721 5718 5714 5710 5706 5701 5696 5691 5686 5681 5675 5670 5665 5659 5653 5646 5643 5639 5636 5630 5622 5613 5605 5596 5588 5580 5572 5564 5556 5548 5541 5534 5527 5520 5513 5508 5503 5500 5496 5494 5492
5717 5715 5712 5708 5704 5700 5695 5690 5684 5679 5673 5668 5662 5655 5649 5642 5635 5628 5623 5619 5615 5610 5603 5594 5585 5574 5564 5555 5545 5535 5525 5515 5506 5497 5488 5480 5472 5465 5460 5456 5453 5450 5448
5708 5705 5702 5698 5693 5689 5683 5678 5673 5667 5661 5654 5648 5641 5634 5626 5618 5610 5602 5596 5593 5591 5583 5574 5563 5550 5537 5525 5513 5501 5490 5479 5468 5457 5446 5435 5426 5418 5412 5408 5405 5402 5401
5699 5696 5692 5687 5683 5678 5672 5667 5661 5654 5648 5641 5634 5626 5618 5610 5601 5592 5582 5573 5565 5562 5562 5554 5540 5526 5509 5493 5477 5462 5448 5436 5424 5412 5400 5390 5381 5374 5368 5364 5361 5360 5359
5690 5686 5682 5677 5672 5667 5661 5655 5649 5642 5635 5627 5619 5611 5602 5594 5584 5574 5564 5554 5542 5532 5530 5528 5514 5499 5479 5459 5439 5420 5403 5389 5376 5364 5354 5346 5340 5335 5331 5329 5327 5326 5325
5680 5676 5671 5666 5661 5655 5649 5643 5635 5628 5621 5612 5604 5596 5586 5577 5567 5556 5546 5534 5521 5506 5497 5495 5482 5465 5446 5424 5404 5384 5365 5350 5339 5329 5321 5314 5308 5304 5302 5300 5298 5297 5297
5670 5666 5661 5655 5649 5643 5637 5630 5622 5614 5606 5598 5589 5580 5570 5560 5550 5538 5526 5513 5498 5481 5463 5454 5448 5431 5412 5390 5372 5357 5341 5326 5314 5306 5298 5292 5287 5283 5280 5278 5276 5275 5275
5660 5656 5650 5644 5638 5631 5624 5617 5609 5601 5592 5583 5573 5564 5553 5543 5531 5519 5505 5490 5474 5456 5436 5417 5407 5394 5379 5363 5348 5337 5324 5312 5301 5291 5284 5279 5274 5269 5265 5262 5260 5258 5257
5650 5645 5639 5633 5626 5619 5611 5604 5595 5586 5577 5567 5557 5547 5536 5523 5511 5497 5482 5465 5447 5429 5410 5391 5377 5365 5354 5343 5331 5322 5313 5302 5292 5282 5275 5269 5263 5258 5254 5250 5247 5245 5243
5639 5634 5627 5621 5614 5606 5598 5589 5581 5572 5562 5552 5541 5529 5517 5503 5488 5472 5455 5438 5419 5400 5384 5370 5358 5347 5338 5328 5320 5310 5302 5295 5286 5275 5270 5263 5255 5250 5244 5239 5235 5233 5230
5628 5622 5616 5609 5601 5593 5584 5575 5566 5557 5547 5536 5524 5512 5498 5482 5466 5450 5431 5412 5392 5374 5361 5352 5343 5334 5325 5317 5309 5301 5293 5286 5279 5271 5263 5257 5248 5243 5236 5231 5226 5222 5220
5617 5610 5603 5596 5588 5579 5570 5561 5552 5542 5531 5518 5505 5492 5477 5460 5442 5426 5410 5393 5376 5359 5346 5338 5331 5323 5316 5308 5302 5295 5287 5279 5270 5262 5257 5251 5242 5236 5229 5223 5219 5215 5212
5605 5598 5591 5583 5575 5566 5557 5547 5538 5527 5514 5500 5485 5470 5455 5439 5420 5404 5390 5376 5361 5348 5338 5329 5322 5314 5307 5300 5294 5288 5281 5275 5266 5255 5248 5243 5236 5230 5223 5218 5213 5209 5206
5594 5587 5579 5571 5563 5554 5544 5533 5522 5511 5498 5483 5466 5448 5432 5417 5400 5384 5370 5359 5349 5338 5329 5321 5314 5307 5300 5293 5287 5281 5276 5269 5262 5252 5244 5237 5232 5226 5220 5216 5211 5206 5202
5582 5575 5566 5558 5550 5541 5530 5519 5506 5495 5481 5466 5448 5428 5409 5393 5378 5364 5354 5346 5338 5330 5323 5316 5309 5302 5295 5289 5282 5275 5269 5263 5256 5249 5242 5235 5229 5223 5220 5215 5211 5205 5199